sat.trackr.live / text

‹ back to catalog

STARLINK-5479

NORAD 55662 · 2023-021AL

PAYLOAD ACTIVE UNKNOWN

§ Identity

Operator
Country
US
Launch date
2023-02-17
Launch site
AFWTR
Launch vehicle
Mass (kg)
RCS (m²)

Purposes: comms

External: N2YO · Heavens-Above · Gunter

§ Orbital elements

Epoch: 2026-09-20T22:00:03.000096Z

Period
95.53 min
Inclination
69.9982°
Eccentricity
0.0002759
Mean motion
15.07364857 rev/d
Perigee alt
542.3 km
Apogee alt
546.2 km
Semi-major
6,922.4 km
B*
3.7677e-4
RAAN
32.5579°
Arg perigee
256.7305°
Mean anomaly
317.9952°
Rev number
576

§ Raw data

STARLINK-54791 55662U 23021AL  26263.91670139  .00005613  00000+0  37677-3 0  99942 55662  69.9982  32.5579 0002759 256.7305 317.9952 15.07364857  5761

JSON: /api/v1/satellites/55662 · /tle

For live sub-satellite position, see the globe view (requires WebGL).

§ Visibility from observer

Set your observer location to see the next 7 days of passes ≥ 10°. The values pass through the URL so the page stays shareable.

No JS? Fill the form by hand. The geolocation button needs JavaScript.